Theta_e
315 316 315 314 313 312 310 310 310 310 311 311 310 308 305 301 300 299 299 298 298 298 297 297 297 297 299
315 316 315 313 313 311 310 309 309 310 310 310 310 309 307 305 300 299 298 298 297 297 297 297 296 296 298
315 315 314 313 313 311 310 309 308 309 309 309 310 309 307 306 304 300 298 297 297 296 296 296 296 296 297
315 314 313 313 313 312 310 309 308 308 308 308 308 308 307 306 305 302 300 298 297 296 295 295 295 295 295
314 313 312 312 311 312 311 310 309 308 307 307 307 307 306 305 305 304 302 300 299 298 296 294 294 294 294
314 313 314 313 312 311 311 310 309 308 307 307 306 306 305 305 304 303 303 302 300 299 297 294 293 293 293
317 317 315 314 313 311 312 311 308 308 307 306 306 306 305 305 304 303 303 301 301 299 298 294 293 293 293
322 321 318 316 315 314 312 310 309 308 307 306 306 305 305 304 304 303 302 302 300 300 299 296 294 292 293
320 318 319 317 316 312 309 309 308 307 307 306 306 305 305 304 304 303 302 300 301 301 300 298 295 293 292
314 315 315 315 314 314 313 311 309 307 308 306 305 305 304 304 303 303 302 301 300 299 299 299 297 294 292
314 314 315 314 312 311 312 312 311 311 310 307 305 305 304 303 304 303 302 301 300 299 297 298 298 294 292
313 313 314 314 311 311 312 311 311 311 310 310 308 308 304 303 305 304 303 302 300 300 299 298 298 295 292
314 314 317 318 313 310 310 310 310 310 309 308 308 308 307 306 306 305 303 302 302 300 299 298 297 295 292
318 316 316 314 311 311 311 310 309 309 308 307 307 306 306 305 305 304 304 302 301 300 299 297 296 294 292
317 316 314 313 312 310 311 311 310 309 308 307 306 305 304 304 302 302 302 302 300 298 298 297 296 294 292
315 317 317 314 315 310 311 311 310 309 308 308 307 305 303 301 301 301 300 301 299 298 296 296 295 293 293
315 315 316 316 316 313 312 311 309 309 308 308 307 306 303 300 300 299 298 298 297 296 295 295 294 293 293
Wind_Speed
44 49 47 43 38 37 37 37 34 32 31 27 24 20 14 13 12 10 8 7 6 5 6 8 9 11 15
46 50 52 47 42 40 37 37 36 35 32 29 26 22 18 15 14 12 11 9 8 7 8 9 10 10 13
49 51 52 52 43 40 38 38 38 36 34 30 28 25 22 19 19 16 13 11 10 9 9 9 10 11 11
48 49 54 54 49 46 43 41 39 37 35 33 31 28 25 22 20 20 15 13 11 11 10 10 11 11 11
50 49 47 50 54 53 48 45 41 41 40 37 35 33 30 27 23 23 19 16 13 13 12 11 11 12 12
54 51 48 55 56 54 53 49 49 44 44 42 39 37 35 31 27 26 21 18 16 15 14 12 12 12 12
59 54 52 52 52 57 58 57 49 47 46 44 42 40 37 32 30 27 25 21 20 17 16 15 13 13 13
50 48 49 46 42 46 59 54 47 44 47 45 44 45 39 36 33 29 28 24 22 19 18 17 15 14 13
51 48 47 46 43 47 48 53 46 42 45 45 49 44 42 39 36 32 29 27 24 22 21 19 16 14 14
47 43 41 44 43 41 45 52 51 48 52 47 45 43 42 44 39 36 34 32 28 25 24 22 19 15 15
51 46 40 40 42 45 43 40 45 49 46 49 47 41 35 20 38 40 38 34 31 28 27 26 21 17 16
54 48 45 42 43 46 39 41 40 39 36 31 43 43 42 38 26 23 38 38 34 31 29 26 22 18 19
58 53 48 44 41 44 43 39 39 38 35 29 30 30 36 38 35 32 23 30 33 32 31 28 24 19 18
54 49 49 48 45 47 46 44 41 39 34 32 29 30 30 30 29 30 29 23 26 29 29 27 24 21 19
50 50 51 49 47 49 48 45 44 42 39 39 33 32 29 26 25 27 28 27 24 22 29 28 25 22 21
50 47 49 52 53 52 48 46 48 44 43 42 39 35 33 30 28 27 28 27 26 25 24 26 27 25 22
50 51 49 49 53 53 49 49 49 45 44 44 41 40 39 38 34 33 29 28 28 26 23 25 27 24 22
Wind_Direction
193 201 198 201 201 206 201 195 196 198 206 209 209 220 217 212 214 222 232 248 270 298 317 326 338 345 355
190 199 202 201 203 203 201 201 199 203 206 213 215 218 226 229 227 232 238 249 267 284 297 311 321 330 344
188 199 199 201 200 205 204 205 206 206 210 213 219 220 226 234 233 235 239 248 261 274 282 293 304 315 329
194 188 198 200 199 202 203 209 207 208 213 217 221 225 229 232 242 233 238 247 260 270 277 281 290 301 315
191 186 187 188 195 202 207 205 209 213 212 215 218 223 226 229 235 247 236 244 254 266 272 276 280 291 303
193 189 188 203 202 200 203 207 205 211 215 217 219 224 227 230 234 241 244 242 250 258 266 270 275 284 293
209 210 203 205 204 202 207 211 206 208 211 217 220 226 231 232 236 239 248 241 243 251 259 264 271 277 284
224 219 218 214 214 220 210 207 212 215 213 215 219 227 228 232 236 240 248 244 238 244 253 259 267 272 277
221 220 220 218 212 200 199 205 200 206 218 220 223 224 229 232 235 238 242 248 247 245 249 253 259 265 269
205 215 217 217 215 220 218 211 209 210 222 212 220 219 227 233 232 235 238 240 243 247 250 249 254 257 264
203 208 210 213 210 211 220 225 218 219 225 215 218 219 216 228 233 231 234 237 238 241 244 246 250 251 254
200 203 205 207 206 208 216 221 227 234 233 229 225 226 221 224 227 227 228 233 235 237 240 246 247 242 244
207 208 213 213 208 204 208 213 221 226 227 229 230 231 231 232 232 229 225 226 230 232 236 239 240 238 235
210 213 212 210 203 205 206 208 213 217 216 222 223 223 226 231 234 233 230 224 231 228 231 234 235 230 233
209 209 209 207 205 207 208 209 212 213 211 214 212 215 220 227 228 225 226 226 228 227 227 230 230 229 232
209 210 212 208 209 209 209 210 213 211 212 214 211 208 212 218 220 222 223 221 225 226 225 227 229 226 228
214 211 207 211 212 209 209 211 213 214 215 218 213 213 212 214 215 217 221 220 220 220 223 225 224 223 228